Location: Cerezo de Arriba
(41.2389°N, 3.5585°W)
Time: 01:08:57
(UTC+00:00)

ARIANE 6 FM1 Upper Stage - Pass Details

Date: 19 May 2025
Orbit: 530 x 611 km, 62.0° (Epoch: 24 June)

Event Time Altitude Azimuth Distance (km) Brightness Sun altitude
Rises 20:15:07 0° 205° (SSW) 2,659 6.0 -8.0°
Reaches altitude 10° 20:17:19 10° 201° (SSW) 1,770 5.1 -8.4°
Maximum altitude 20:21:12 56° 123° (ESE) 633 2.6 -9.0°
Drops below altitude 10° 20:25:08 10° 45° (NE) 1,788 5.2 -9.6°
Sets 20:27:22 0° 41° (NE) 2,689 6.1 -9.9°
